N0312CM SKCL-SKCG

Flight info

Callsign N0312CM
Flight time N/A
Altitude 19000
Route KIKUM5A KIKUM UQ101 DOSGO DCT AKPEK DCT IRAXU IRAXU2B
Aircraft B58T/L-SDFGRY/C

Departure

Time 2026-04-26 20:43
Airport Alfonso Bonilla Aragon International Airport (SKCL)

Arrival

Time N/A
Airport Rafael Nuñez International Airport (SKCG)
Time Latitude Longitude Altitude Speed Heading
2026-04-26 20:34 3.53344 -76.38658 3156 ft 0 kts 10°
2026-04-26 20:41 3.53386 -76.38635 3156 ft 11 kts 101°
2026-04-26 20:42 3.53373 -76.38569 3156 ft 17 kts 101°
2026-04-26 20:42 3.53269 -76.38515 3156 ft 25 kts 189°
2026-04-26 20:42 3.53075 -76.38550 3156 ft 31 kts 190°
2026-04-26 20:42 3.52988 -76.38485 3156 ft 19 kts 98°
2026-04-26 20:43 3.53109 -76.38380 3154 ft 54 kts 11°
2026-04-26 20:43 3.53730 -76.38267 3184 ft 118 kts
2026-04-26 20:43 3.54616 -76.38098 3591 ft 129 kts
2026-04-26 20:43 3.55512 -76.37943 4142 ft 136 kts
2026-04-26 20:44 3.56495 -76.37789 4557 ft 150 kts
2026-04-26 20:44 3.57556 -76.37612 4968 ft 158 kts
2026-04-26 20:44 3.58662 -76.37420 5394 ft 162 kts
2026-04-26 20:44 3.59778 -76.37214 5861 ft 163 kts
2026-04-26 20:45 3.60919 -76.36977 6192 ft 171 kts
2026-04-26 20:45 3.62087 -76.36794 6616 ft 169 kts
2026-04-26 20:45 3.63248 -76.36615 7025 ft 168 kts
2026-04-26 20:45 3.64373 -76.36425 7600 ft 156 kts
2026-04-26 20:46 3.65392 -76.36250 8275 ft 142 kts
2026-04-26 20:46 3.66340 -76.36087 8904 ft 138 kts
2026-04-26 20:46 3.67307 -76.35919 9387 ft 144 kts
2026-04-26 20:46 3.68300 -76.35745 9870 ft 149 kts 10°
2026-04-26 20:47 3.69331 -76.35568 10330 ft 152 kts
2026-04-26 20:47 3.70031 -76.35414 10638 ft 153 kts 17°
2026-04-26 20:47 3.71390 -76.34990 11262 ft 156 kts 16°
2026-04-26 20:47 3.72438 -76.34676 11743 ft 158 kts 16°
2026-04-26 20:48 3.73496 -76.34359 12223 ft 159 kts 16°
2026-04-26 20:48 3.74563 -76.34037 12712 ft 161 kts 16°
2026-04-26 20:48 3.75637 -76.33714 13209 ft 161 kts 16°
2026-04-26 20:48 3.76710 -76.33390 13704 ft 162 kts 16°
2026-04-26 20:49 3.77790 -76.33065 14155 ft 162 kts 16°
2026-04-26 20:49 3.78873 -76.32738 14608 ft 162 kts 16°
2026-04-26 20:49 3.79937 -76.32358 15065 ft 163 kts 18°
2026-04-26 20:49 3.81014 -76.31997 15529 ft 164 kts 17°
2026-04-26 20:50 3.82098 -76.31633 16003 ft 164 kts 17°
2026-04-26 20:50 3.83181 -76.31264 16481 ft 165 kts 18°
2026-04-26 20:50 3.84273 -76.30890 16970 ft 166 kts 17°
2026-04-26 20:50 3.85369 -76.30515 17466 ft 166 kts 17°
2026-04-26 20:51 3.86464 -76.30140 17970 ft 167 kts 17°
2026-04-26 20:51 3.87560 -76.29765 18437 ft 167 kts 17°
2026-04-26 20:51 3.88668 -76.29382 18880 ft 168 kts 17°
2026-04-26 20:51 3.89842 -76.28980 19011 ft 190 kts 18°
2026-04-26 20:52 3.91141 -76.28535 19023 ft 207 kts 18°
2026-04-26 20:52 3.92547 -76.28051 19016 ft 213 kts 18°
2026-04-26 20:52 3.93965 -76.27565 19021 ft 217 kts 18°
2026-04-26 20:52 3.95382 -76.27085 19020 ft 218 kts 18°
2026-04-26 20:53 3.96824 -76.26590 19021 ft 218 kts 18°
2026-04-26 20:53 3.98266 -76.26083 19021 ft 221 kts 18°
2026-04-26 20:53 3.99732 -76.25586 19020 ft 224 kts 17°
2026-04-26 20:53 4.01214 -76.25083 19021 ft 226 kts 18°
2026-04-26 20:54 4.02707 -76.24570 19018 ft 227 kts 18°
2026-04-26 20:54 4.04205 -76.24058 19022 ft 228 kts 18°
2026-04-26 20:54 4.05714 -76.23542 19024 ft 228 kts 18°
2026-04-26 20:54 4.07218 -76.23022 19022 ft 229 kts 18°
2026-04-26 20:55 4.08710 -76.22520 19018 ft 229 kts 14°
2026-04-26 20:55 4.10303 -76.22385 19019 ft 228 kts 355°
2026-04-26 20:55 4.11864 -76.22488 19025 ft 228 kts 355°
2026-04-26 20:55 4.13463 -76.22572 18939 ft 232 kts 356°
2026-04-26 20:56 4.15070 -76.22657 18937 ft 231 kts 356°
2026-04-26 20:56 4.16670 -76.22751 18932 ft 230 kts 356°
2026-04-26 20:56 4.18263 -76.22844 18930 ft 229 kts 356°
2026-04-26 20:56 4.19855 -76.22935 18926 ft 229 kts 356°
2026-04-26 20:57 4.21448 -76.23026 18926 ft 229 kts 356°
2026-04-26 20:57 4.23041 -76.23117 18931 ft 229 kts 356°
2026-04-26 20:57 4.24629 -76.23206 18929 ft 228 kts 356°
2026-04-26 20:57 4.26217 -76.23296 18927 ft 228 kts 356°
2026-04-26 20:58 4.27802 -76.23387 18930 ft 228 kts 356°
2026-04-26 20:58 4.29388 -76.23476 18927 ft 228 kts 356°
2026-04-26 20:58 4.30973 -76.23566 18926 ft 228 kts 356°
2026-04-26 20:58 4.32557 -76.23657 18924 ft 228 kts 356°
2026-04-26 20:59 4.34135 -76.23747 18928 ft 228 kts 356°
2026-04-26 20:59 4.35718 -76.23837 18930 ft 228 kts 356°
2026-04-26 20:59 4.37301 -76.23926 18928 ft 228 kts 355°
2026-04-26 20:59 4.38888 -76.24016 18931 ft 228 kts 356°
2026-04-26 21:00 4.40471 -76.24107 18932 ft 228 kts 356°
2026-04-26 21:00 4.42034 -76.24196 18928 ft 228 kts 356°
2026-04-26 21:00 4.43621 -76.24286 18927 ft 228 kts 356°
2026-04-26 21:00 4.45204 -76.24375 18926 ft 228 kts 356°
2026-04-26 21:01 4.46787 -76.24466 18926 ft 228 kts 356°
2026-04-26 21:01 4.48375 -76.24557 18931 ft 228 kts 356°
2026-04-26 21:01 4.49962 -76.24646 18935 ft 228 kts 356°
2026-04-26 21:01 4.51548 -76.24736 18933 ft 228 kts 356°
2026-04-26 21:02 4.53132 -76.24832 18934 ft 228 kts 355°
2026-04-26 21:02 4.54699 -76.24930 18941 ft 228 kts 356°
2026-04-26 21:02 4.56285 -76.25027 18942 ft 228 kts 356°
2026-04-26 21:02 4.57870 -76.25122 18937 ft 229 kts 356°
2026-04-26 21:03 4.59457 -76.25218 18940 ft 229 kts 356°
2026-04-26 21:03 4.61069 -76.25316 18936 ft 229 kts 355°
2026-04-26 21:03 4.62635 -76.25411 18938 ft 228 kts 355°
2026-04-26 21:03 4.64205 -76.25492 18938 ft 217 kts
2026-04-26 21:04 4.65621 -76.25451 18904 ft 190 kts
2026-04-26 21:04 4.66867 -76.25474 18901 ft 171 kts
2026-04-26 21:04 4.68006 -76.25514 18901 ft 157 kts
2026-04-26 21:04 4.69064 -76.25644 18912 ft 148 kts 359°
2026-04-26 21:05 4.70074 -76.25686 18902 ft 142 kts
2026-04-26 21:05 4.71038 -76.25723 18905 ft 135 kts
2026-04-26 21:05 4.71958 -76.25762 18907 ft 129 kts
2026-04-26 21:05 4.72834 -76.25860 18888 ft 124 kts 354°
2026-04-26 21:06 4.73664 -76.25932 18910 ft 118 kts
2026-04-26 21:06 4.74461 -76.25974 18909 ft 111 kts
2026-04-26 21:06 4.75202 -76.25998 18781 ft 88 kts 349°
2026-04-26 21:06 4.75671 -76.26119 14858 ft 223 kts 358°
2026-04-26 21:07 4.75663 -76.25813 11036 ft 256 kts 109°
2026-04-26 21:07 4.75227 -76.24424 11303 ft 177 kts 110°
2026-04-26 21:07 4.74751 -76.23326 11153 ft 166 kts 117°
2026-04-26 21:07 4.74222 -76.22357 11169 ft 156 kts 127°
2026-04-26 21:08 4.73502 -76.21596 11266 ft 146 kts 132°
2026-04-26 21:08 4.72834 -76.20773 11076 ft 158 kts 130°
2026-04-26 21:08 4.72010 -76.20039 11532 ft 146 kts 156°
2026-04-26 21:08 4.71120 -76.19769 12311 ft 133 kts 169°
2026-04-26 21:09 4.70158 -76.19414 12526 ft 161 kts 161°
2026-04-26 21:09 4.69248 -76.18669 12609 ft 186 kts 122°
2026-04-26 21:09 4.68995 -76.17362 12687 ft 202 kts 85°
2026-04-26 21:09 4.69561 -76.16051 12754 ft 213 kts 53°
2026-04-26 21:10 4.70772 -76.15188 12803 ft 219 kts 22°
2026-04-26 21:10 4.72290 -76.15008 12840 ft 223 kts 355°
2026-04-26 21:10 4.73765 -76.15353 13175 ft 213 kts 346°
2026-04-26 21:10 4.75157 -76.15801 13539 ft 207 kts 344°
2026-04-26 21:11 4.76523 -76.16226 13886 ft 204 kts 346°
2026-04-26 21:11 4.77879 -76.16625 14210 ft 202 kts 346°
2026-04-26 21:11 4.79226 -76.17018 14542 ft 201 kts 346°
2026-04-26 21:11 4.80572 -76.17412 14865 ft 201 kts 346°
2026-04-26 21:12 4.81913 -76.17805 15208 ft 201 kts 345°
2026-04-26 21:12 4.83255 -76.18201 15549 ft 201 kts 345°
2026-04-26 21:12 4.84578 -76.18590 15892 ft 201 kts 345°
2026-04-26 21:12 4.85934 -76.18986 16249 ft 201 kts 345°
2026-04-26 21:13 4.87261 -76.19375 16596 ft 201 kts 345°
2026-04-26 21:13 4.88609 -76.19769 16966 ft 202 kts 345°
2026-04-26 21:13 4.89977 -76.20168 17336 ft 203 kts 345°
2026-04-26 21:13 4.91320 -76.20563 17723 ft 202 kts 345°
2026-04-26 21:14 4.92669 -76.20961 18102 ft 203 kts 345°
2026-04-26 21:14 4.94040 -76.21356 18453 ft 205 kts 346°
2026-04-26 21:14 4.95422 -76.21750 18778 ft 208 kts 346°
2026-04-26 21:14 4.96809 -76.22157 19105 ft 209 kts 346°
2026-04-26 21:15 4.98212 -76.22567 19440 ft 209 kts 346°
2026-04-26 21:15 4.99609 -76.22976 19770 ft 209 kts 346°
2026-04-26 21:15 5.01004 -76.23386 20102 ft 208 kts 346°
2026-04-26 21:15 5.02396 -76.23795 20437 ft 207 kts 346°
2026-04-26 21:16 5.03774 -76.24201 20783 ft 205 kts 346°
2026-04-26 21:16 5.05151 -76.24602 20969 ft 211 kts 346°
2026-04-26 21:16 5.06603 -76.25019 20970 ft 222 kts 347°
2026-04-26 21:16 5.08089 -76.25445 20966 ft 225 kts 346°
2026-04-26 21:17 5.09581 -76.25883 20968 ft 222 kts 346°
2026-04-26 21:17 5.11053 -76.26320 20966 ft 219 kts 346°
2026-04-26 21:17 5.12515 -76.26749 20965 ft 218 kts 346°
2026-04-26 21:17 5.13966 -76.27172 20965 ft 216 kts 347°
2026-04-26 21:18 5.15411 -76.27590 20962 ft 218 kts 347°
2026-04-26 21:18 5.16884 -76.28024 20966 ft 224 kts 346°
2026-04-26 21:18 5.18394 -76.28466 20959 ft 228 kts 346°
2026-04-26 21:18 5.19958 -76.28727 20996 ft 230 kts
2026-04-26 21:19 5.21545 -76.28508 20973 ft 233 kts 13°
2026-04-26 21:19 5.23158 -76.28230 20965 ft 235 kts 12°
2026-04-26 21:19 5.24778 -76.27961 20961 ft 236 kts 12°
2026-04-26 21:19 5.26406 -76.27687 20960 ft 237 kts 12°
2026-04-26 21:20 5.28035 -76.27411 20961 ft 238 kts 12°
2026-04-26 21:20 5.29659 -76.27138 20964 ft 238 kts 12°
2026-04-26 21:20 5.31300 -76.26862 20968 ft 238 kts 12°
2026-04-26 21:20 5.32934 -76.26586 20967 ft 238 kts 12°
2026-04-26 21:21 5.34566 -76.26311 20971 ft 238 kts 12°
2026-04-26 21:21 5.36200 -76.26036 20969 ft 238 kts 12°
2026-04-26 21:21 5.37838 -76.25759 20968 ft 238 kts 12°
2026-04-26 21:21 5.39475 -76.25484 20969 ft 238 kts 12°
2026-04-26 21:22 5.41092 -76.25212 20971 ft 238 kts 12°
2026-04-26 21:22 5.42727 -76.24936 20975 ft 238 kts 12°
2026-04-26 21:22 5.44361 -76.24660 20969 ft 238 kts 12°
2026-04-26 21:23 5.47642 -76.24107 20975 ft 238 kts 12°
2026-04-26 21:23 5.49274 -76.23833 20976 ft 238 kts 12°
2026-04-26 21:23 5.50359 -76.23650 20976 ft 238 kts 12°
2026-04-26 21:23 5.51996 -76.23374 20973 ft 238 kts 12°
2026-04-26 21:24 5.53632 -76.23097 20978 ft 238 kts 12°
2026-04-26 21:24 5.55269 -76.22822 20975 ft 238 kts 12°
2026-04-26 21:24 5.56903 -76.22547 20980 ft 238 kts 12°
2026-04-26 21:24 5.58540 -76.22270 20977 ft 238 kts 12°
2026-04-26 21:25 5.60173 -76.21995 20974 ft 238 kts 12°
2026-04-26 21:25 5.61792 -76.21722 20980 ft 238 kts 12°
2026-04-26 21:25 5.63424 -76.21447 20982 ft 238 kts 12°
2026-04-26 21:25 5.65060 -76.21171 20983 ft 238 kts 12°
2026-04-26 21:26 5.66697 -76.20895 20982 ft 238 kts 12°
2026-04-26 21:26 5.68332 -76.20619 20981 ft 238 kts 12°
2026-04-26 21:26 5.69968 -76.20342 20986 ft 238 kts 12°
2026-04-26 21:26 5.71603 -76.20067 20987 ft 238 kts 12°
2026-04-26 21:27 5.73241 -76.19791 20984 ft 239 kts 12°
2026-04-26 21:27 5.74856 -76.19518 20992 ft 238 kts 12°
2026-04-26 21:27 5.76513 -76.19239 20990 ft 238 kts 12°
2026-04-26 21:27 5.78152 -76.18962 20989 ft 238 kts 12°
2026-04-26 21:28 5.79763 -76.18689 20988 ft 238 kts 12°
2026-04-26 21:28 5.81400 -76.18414 20994 ft 238 kts 12°
2026-04-26 21:28 5.83034 -76.18138 20995 ft 238 kts 12°
2026-04-26 21:28 5.84671 -76.17861 20993 ft 238 kts 12°
2026-04-26 21:29 5.86305 -76.17586 20995 ft 238 kts 12°
2026-04-26 21:29 5.87941 -76.17310 20996 ft 238 kts 12°
2026-04-26 21:29 5.89566 -76.17036 20998 ft 238 kts 12°
2026-04-26 21:29 5.91216 -76.16757 20996 ft 238 kts 12°
2026-04-26 21:30 5.92851 -76.16481 20995 ft 238 kts 12°
2026-04-26 21:30 5.94487 -76.16205 20999 ft 238 kts 12°
2026-04-26 21:30 5.96119 -76.15930 20998 ft 238 kts 12°
2026-04-26 21:30 5.97751 -76.15653 20999 ft 238 kts 12°
2026-04-26 21:31 5.99382 -76.15378 21001 ft 238 kts 12°
2026-04-26 21:31 6.01020 -76.15101 20996 ft 238 kts 12°
2026-04-26 21:31 6.02653 -76.14826 20997 ft 238 kts 12°
2026-04-26 21:31 6.04287 -76.14550 21002 ft 238 kts 12°
2026-04-26 21:32 6.05899 -76.14278 20996 ft 238 kts 12°
2026-04-26 21:32 6.07540 -76.14000 20999 ft 238 kts 12°
2026-04-26 21:32 6.09169 -76.13725 21000 ft 238 kts 12°
2026-04-26 21:32 6.10803 -76.13449 21000 ft 238 kts 12°
2026-04-26 21:33 6.12437 -76.13174 20999 ft 238 kts 12°
2026-04-26 21:33 6.14072 -76.12898 21001 ft 238 kts 12°
2026-04-26 21:33 6.15706 -76.12621 20998 ft 238 kts 12°
2026-04-26 21:33 6.17339 -76.12345 21001 ft 238 kts 12°
2026-04-26 21:34 6.18972 -76.12069 21003 ft 238 kts 12°
2026-04-26 21:34 6.20613 -76.11791 20999 ft 239 kts 12°
2026-04-26 21:34 6.22248 -76.11514 21003 ft 239 kts 12°
2026-04-26 21:34 6.23889 -76.11237 21002 ft 239 kts 12°
2026-04-26 21:35 6.25530 -76.10960 21000 ft 239 kts 12°
2026-04-26 21:35 6.27150 -76.10686 21002 ft 239 kts 12°
2026-04-26 21:35 6.28791 -76.10408 21000 ft 239 kts 12°
2026-04-26 21:35 6.30435 -76.10129 20999 ft 240 kts 12°
2026-04-26 21:36 6.32079 -76.09851 20997 ft 240 kts 12°
2026-04-26 21:36 6.33730 -76.09573 21000 ft 239 kts 12°
2026-04-26 21:36 6.35370 -76.09295 20999 ft 240 kts 12°
2026-04-26 21:36 6.37011 -76.09015 21000 ft 239 kts 13°
2026-04-26 21:37 6.38650 -76.08732 20998 ft 238 kts 12°
2026-04-26 21:37 6.40284 -76.08457 20993 ft 238 kts 12°
2026-04-26 21:37 6.41914 -76.08184 20994 ft 237 kts 12°
2026-04-26 21:37 6.43548 -76.07908 20993 ft 237 kts 12°
2026-04-26 21:38 6.45153 -76.07636 20994 ft 237 kts 12°
2026-04-26 21:38 6.46788 -76.07360 20994 ft 237 kts 12°
2026-04-26 21:38 6.48416 -76.07084 20994 ft 237 kts 12°
2026-04-26 21:38 6.50043 -76.06809 20994 ft 238 kts 13°
2026-04-26 21:39 6.51678 -76.06536 20993 ft 238 kts 12°
2026-04-26 21:39 6.53316 -76.06260 20994 ft 238 kts 12°
2026-04-26 21:39 6.54946 -76.05984 20992 ft 238 kts 12°
2026-04-26 21:39 6.56570 -76.05708 20993 ft 238 kts 12°
2026-04-26 21:40 6.58199 -76.05433 20990 ft 238 kts 12°
2026-04-26 21:40 6.59835 -76.05158 20988 ft 238 kts 12°
2026-04-26 21:40 6.61470 -76.04881 20986 ft 238 kts 12°
2026-04-26 21:40 6.63105 -76.04602 20987 ft 238 kts 12°
2026-04-26 21:41 6.64716 -76.04326 20986 ft 238 kts 12°
2026-04-26 21:41 6.66351 -76.04049 20990 ft 238 kts 12°
2026-04-26 21:41 6.67983 -76.03773 20989 ft 238 kts 12°
2026-04-26 21:41 6.69618 -76.03497 20989 ft 238 kts 12°
2026-04-26 21:42 6.71250 -76.03221 20990 ft 237 kts 12°
2026-04-26 21:42 6.72882 -76.02944 20986 ft 238 kts 12°
2026-04-26 21:42 6.74515 -76.02667 20985 ft 238 kts 12°
2026-04-26 21:42 6.76155 -76.02389 20986 ft 239 kts 12°
2026-04-26 21:43 6.77795 -76.02112 20987 ft 239 kts 12°
2026-04-26 21:43 6.79433 -76.01836 20988 ft 239 kts 12°
2026-04-26 21:43 6.81078 -76.01558 20987 ft 239 kts 12°
2026-04-26 21:43 6.82714 -76.01280 20983 ft 239 kts 12°
2026-04-26 21:44 6.84357 -76.01002 20987 ft 239 kts 12°
2026-04-26 21:44 6.85996 -76.00725 20984 ft 239 kts 12°
2026-04-26 21:44 6.87633 -76.00447 20986 ft 239 kts 12°
2026-04-26 21:44 6.89272 -76.00170 20985 ft 239 kts 12°
2026-04-26 21:45 6.90910 -75.99864 20991 ft 239 kts 15°
2026-04-26 21:45 6.92534 -75.99482 20985 ft 240 kts 16°
2026-04-26 21:45 6.94154 -75.99087 20986 ft 240 kts 17°
2026-04-26 21:45 6.95783 -75.98728 20974 ft 241 kts 12°
2026-04-26 21:46 6.97445 -75.98518 20986 ft 240 kts
2026-04-26 21:46 6.99103 -75.98338 20988 ft 239 kts
2026-04-26 21:46 7.00749 -75.98126 20988 ft 237 kts 11°
2026-04-26 21:46 7.02379 -75.97889 20984 ft 237 kts 11°
2026-04-26 21:47 7.04011 -75.97656 20983 ft 236 kts 11°
2026-04-26 21:47 7.05635 -75.97431 20983 ft 236 kts 11°
2026-04-26 21:47 7.07258 -75.97205 20983 ft 235 kts 11°
2026-04-26 21:47 7.08883 -75.96978 20981 ft 235 kts 11°
2026-04-26 21:48 7.10505 -75.96751 20983 ft 235 kts 11°
2026-04-26 21:48 7.12128 -75.96523 20977 ft 235 kts 11°
2026-04-26 21:48 7.13745 -75.96298 20978 ft 235 kts 11°
2026-04-26 21:48 7.15366 -75.96071 20977 ft 235 kts 11°
2026-04-26 21:49 7.16988 -75.95843 20974 ft 235 kts 11°
2026-04-26 21:49 7.18579 -75.95621 20977 ft 235 kts 11°
2026-04-26 21:49 7.20201 -75.95394 20972 ft 235 kts 11°
2026-04-26 21:49 7.21818 -75.95168 20972 ft 235 kts 11°
2026-04-26 21:50 7.23444 -75.94940 20970 ft 235 kts 11°
2026-04-26 21:50 7.24517 -75.94789 20967 ft 235 kts 11°
2026-04-26 21:50 7.26683 -75.94486 20962 ft 235 kts 11°
2026-04-26 21:50 7.28314 -75.94254 20731 ft 231 kts 11°
2026-04-26 21:51 7.29857 -75.94042 20441 ft 218 kts 11°
2026-04-26 21:51 7.31327 -75.93845 20150 ft 209 kts 10°
2026-04-26 21:51 7.32746 -75.93651 19861 ft 203 kts 11°
2026-04-26 21:51 7.34127 -75.93459 19586 ft 199 kts 11°
2026-04-26 21:52 7.35491 -75.93269 19309 ft 196 kts 10°
2026-04-26 21:52 7.36831 -75.93082 19044 ft 194 kts 10°
2026-04-26 21:52 7.38162 -75.92895 18781 ft 189 kts 10°
2026-04-26 21:52 7.39431 -75.92720 18510 ft 179 kts 10°
2026-04-26 21:53 7.40637 -75.92557 18240 ft 172 kts 10°
2026-04-26 21:53 7.41809 -75.92397 17930 ft 168 kts 10°
2026-04-26 21:53 7.42944 -75.92239 17633 ft 165 kts 10°
2026-04-26 21:53 7.44074 -75.92080 17335 ft 163 kts 10°
2026-04-26 21:54 7.45192 -75.91923 17043 ft 161 kts 10°
2026-04-26 21:54 7.46274 -75.91775 16927 ft 149 kts 10°
2026-04-26 21:54 7.47248 -75.91649 16915 ft 134 kts
2026-04-26 21:54 7.48132 -75.91535 16907 ft 122 kts
2026-04-26 21:55 7.48954 -75.91431 16929 ft 125 kts
2026-04-26 21:55 7.49931 -75.91285 16956 ft 157 kts 12°
2026-04-26 21:55 7.51094 -75.91089 16954 ft 180 kts 11°
2026-04-26 21:55 7.52384 -75.90892 16946 ft 195 kts 10°
2026-04-26 21:56 7.53748 -75.90699 16933 ft 204 kts 10°
2026-04-26 21:56 7.55176 -75.90498 16928 ft 210 kts 10°
2026-04-26 21:56 7.56635 -75.90293 16923 ft 213 kts 11°
2026-04-26 21:56 7.58116 -75.90085 16916 ft 216 kts 10°
2026-04-26 21:57 7.59608 -75.89874 16905 ft 217 kts 10°
2026-04-26 21:57 7.61115 -75.89662 16890 ft 219 kts 10°
2026-04-26 21:57 7.62626 -75.89450 16893 ft 219 kts 10°
2026-04-26 21:57 7.64138 -75.89238 16887 ft 220 kts 10°
2026-04-26 21:58 7.65650 -75.89026 16880 ft 219 kts 10°
2026-04-26 21:58 7.67163 -75.88814 16885 ft 219 kts 10°
2026-04-26 21:58 7.68671 -75.88603 16880 ft 219 kts 10°
2026-04-26 21:58 7.70165 -75.88392 16877 ft 219 kts 10°
2026-04-26 21:59 7.71675 -75.88181 16873 ft 219 kts 10°
2026-04-26 21:59 7.73183 -75.87970 16874 ft 219 kts 10°
2026-04-26 21:59 7.74693 -75.87758 16872 ft 219 kts 10°
2026-04-26 21:59 7.76202 -75.87545 16871 ft 219 kts 10°
2026-04-26 22:00 7.77717 -75.87333 16867 ft 219 kts 10°
2026-04-26 22:00 7.79229 -75.87120 16869 ft 220 kts 10°
2026-04-26 22:00 7.80750 -75.86906 16864 ft 220 kts 10°
2026-04-26 22:00 7.82267 -75.86693 16861 ft 220 kts 10°
2026-04-26 22:01 7.83782 -75.86481 16864 ft 220 kts 10°
2026-04-26 22:01 7.85298 -75.86268 16859 ft 220 kts 10°
2026-04-26 22:01 7.86814 -75.86055 16859 ft 219 kts 10°
2026-04-26 22:01 7.88305 -75.85847 16862 ft 219 kts 10°
2026-04-26 22:02 7.89816 -75.85634 16861 ft 219 kts 10°
2026-04-26 22:02 7.90838 -75.85490 16856 ft 219 kts 10°
2026-04-26 22:02 7.92838 -75.85209 16860 ft 219 kts 10°
2026-04-26 22:02 7.94351 -75.84997 16858 ft 219 kts 10°
2026-04-26 22:03 7.95861 -75.84785 16852 ft 219 kts 10°
2026-04-26 22:03 7.97371 -75.84573 16857 ft 219 kts 10°
2026-04-26 22:03 7.98882 -75.84360 16850 ft 219 kts 10°
2026-04-26 22:03 8.00392 -75.84147 16848 ft 219 kts 10°
2026-04-26 22:04 8.01898 -75.83936 16850 ft 219 kts 10°
2026-04-26 22:04 8.03409 -75.83724 16853 ft 219 kts 10°
2026-04-26 22:04 8.04916 -75.83512 16849 ft 219 kts 10°
2026-04-26 22:04 8.06423 -75.83300 16845 ft 219 kts 10°
2026-04-26 22:05 8.07928 -75.83089 16847 ft 219 kts 10°
2026-04-26 22:05 8.09443 -75.82876 16846 ft 219 kts 10°
2026-04-26 22:05 8.10939 -75.82665 16850 ft 219 kts 10°
2026-04-26 22:05 8.12456 -75.82451 16849 ft 219 kts 10°
2026-04-26 22:06 8.13964 -75.82240 16843 ft 219 kts 10°
2026-04-26 22:06 8.15474 -75.82028 16845 ft 219 kts 10°
2026-04-26 22:06 8.16988 -75.81811 16681 ft 226 kts 11°
2026-04-26 22:06 8.18613 -75.81571 16186 ft 242 kts 11°
2026-04-26 22:07 8.20284 -75.81324 15701 ft 250 kts 11°
2026-04-26 22:07 8.22039 -75.81073 15209 ft 253 kts 11°
2026-04-26 22:07 8.23786 -75.80826 14723 ft 253 kts 11°
2026-04-26 22:07 8.24938 -75.80665 14408 ft 252 kts 11°
2026-04-26 22:08 8.27238 -75.80342 13776 ft 250 kts 11°
2026-04-26 22:08 8.28383 -75.80183 13436 ft 249 kts 11°
2026-04-26 22:08 8.30666 -75.79864 12848 ft 243 kts 11°
2026-04-26 22:08 8.31770 -75.79717 12839 ft 230 kts 11°
2026-04-26 22:09 8.33289 -75.79515 12837 ft 218 kts 11°
2026-04-26 22:09 8.34786 -75.79310 12837 ft 211 kts 11°
2026-04-26 22:09 8.36227 -75.79109 12841 ft 207 kts 11°
2026-04-26 22:09 8.37630 -75.78912 12840 ft 205 kts 11°
2026-04-26 22:10 8.39035 -75.78715 12841 ft 203 kts 11°
2026-04-26 22:10 8.40441 -75.78517 12841 ft 203 kts 11°
2026-04-26 22:10 8.41836 -75.78321 12841 ft 202 kts 11°
2026-04-26 22:10 8.43231 -75.78125 12837 ft 202 kts 11°
2026-04-26 22:11 8.44623 -75.77929 12840 ft 202 kts 11°
2026-04-26 22:11 8.46014 -75.77733 12838 ft 202 kts 11°
2026-04-26 22:11 8.47408 -75.77537 12834 ft 202 kts 11°
2026-04-26 22:11 8.48783 -75.77343 12838 ft 202 kts 11°
2026-04-26 22:12 8.50173 -75.77147 12836 ft 202 kts 11°
2026-04-26 22:12 8.51556 -75.76952 12831 ft 191 kts 11°
2026-04-26 22:12 8.52786 -75.76788 12825 ft 167 kts 10°
2026-04-26 22:12 8.53886 -75.76646 12821 ft 153 kts 10°
2026-04-26 22:13 8.54906 -75.76509 12775 ft 147 kts 11°
2026-04-26 22:13 8.56031 -75.76337 12059 ft 177 kts 12°
2026-04-26 22:13 8.57298 -75.76140 11363 ft 190 kts 11°
2026-04-26 22:13 8.58628 -75.75944 10675 ft 195 kts 11°
2026-04-26 22:14 8.59973 -75.75753 9993 ft 196 kts 11°
2026-04-26 22:14 8.61322 -75.75562 9247 ft 195 kts 11°
2026-04-26 22:14 8.62660 -75.75373 8509 ft 194 kts 11°
2026-04-26 22:14 8.63989 -75.75184 7774 ft 192 kts 11°
2026-04-26 22:15 8.65306 -75.74997 7052 ft 190 kts 11°
2026-04-26 22:15 8.66608 -75.74813 6352 ft 188 kts 11°
2026-04-26 22:15 8.67900 -75.74630 5605 ft 186 kts 11°
2026-04-26 22:15 8.69176 -75.74450 4876 ft 184 kts 11°
2026-04-26 22:16 8.70439 -75.74273 4137 ft 182 kts 11°
2026-04-26 22:16 8.71673 -75.74104 3429 ft 180 kts
2026-04-26 22:16 8.72823 -75.74211 3302 ft 152 kts 346°
2026-04-26 22:16 8.73725 -75.74636 3043 ft 146 kts 331°
2026-04-26 22:17 8.74508 -75.75326 2363 ft 146 kts 320°
2026-04-26 22:17 8.75143 -75.75939 2303 ft 107 kts 321°
2026-04-26 22:17 8.75729 -75.76487 2324 ft 131 kts 323°
2026-04-26 22:17 8.76398 -75.77088 2321 ft 109 kts 322°
2026-04-26 22:18 8.76902 -75.77560 1987 ft 97 kts 321°
2026-04-26 22:18 8.77388 -75.78028 1621 ft 95 kts 323°
2026-04-26 22:18 8.77868 -75.78473 1291 ft 91 kts 323°
2026-04-26 22:18 8.78328 -75.78874 1017 ft 84 kts 326°
2026-04-26 22:19 8.78749 -75.79296 640 ft 90 kts 314°
2026-04-26 22:19 8.79360 -75.79860 773 ft 135 kts 328°
2026-04-26 22:19 8.80164 -75.80525 793 ft 153 kts 320°
2026-04-26 22:19 8.80806 -75.81175 578 ft 114 kts 321°
2026-04-26 22:20 8.81357 -75.81674 241 ft 101 kts 322°
2026-04-26 22:20 8.81809 -75.82093 44 ft 71 kts 319°
2026-04-26 22:20 8.82105 -75.82360 42 ft 50 kts 318°
2026-04-26 22:20 8.82329 -75.82468 43 ft 28 kts 21°
2026-04-26 22:21 8.82397 -75.82412 43 ft 6 kts 47°
2026-04-26 22:21 8.82390 -75.82403 43 ft 0 kts 232°